Location: North Evanston
(42.0634°N, 87.6976°W)
Time: 06:02:00
(UTC+00:00)

Tiros 1 despin weight - Pass Details

Date: 19 May 2026
Orbit: 554 x 591 km, 48.2° (Epoch: 7 June)

Event Time Altitude Azimuth Distance (km) Brightness Sun altitude
Exits shadow 08:53:24 23° 202° (SSW) 1,216 ? -14.7°
Maximum altitude 08:55:35 43° 144° (SE) 803 ? -14.4°
Drops below altitude 10° 08:59:36 10° 73° (ENE) 1,854 ? -13.9°
Sets 09:01:55 0° 66° (ENE) 2,747 ? -13.6°
